#timestamp,LO_Frequency,Hit,StdDev 
1697590815.3,286047185.6,N
1697590835.2,286046490.9,N
1697590855.9,286046491.9,N
1697590875.7,286047195.8,N
1697590895.6,286047196.8,N
1697590915.4,286047198.3,N
1697590935.3,286047202.6,N
1697590955.1,286047205.4,N
1697590956.0,286047205.4,N
1697590975.8,286047207.8,N
1697590995.7,286047211.0,N
1697591015.5,286047215.1,N
1697591035.3,286047219.9,N
1697591055.2,286047221.9,N
1697591075.0,286047222.4,N
1697591075.9,286047222.4,N
1697591095.8,286047226.6,N
1697591115.6,286047227.0,N
1697591135.4,286047231.0,N
1697591155.3,286047234.5,N
1697591175.1,286047236.2,N
1697591195.8,286047239.4,N
1697591215.7,286047244.4,N
1697591235.5,286047247.1,N
1697591255.4,286047249.2,N
1697591275.2,286047250.3,N
1697591295.0,286047252.2,N
1697591295.9,286047252.2,N
1697591315.8,286047252.6,N
1697591335.6,286047256.4,N
1697591355.4,286047258.3,N
1697591375.3,286047259.8,N
1697591395.1,286047265.2,N
1697591415.9,286047266.0,Y
1697591435.7,286047040.1,P
1697591455.5,286047042.5,N
1697591475.4,286047039.8,N
1697591495.2,286047044.0,N
1697591515.0,286047044.7,N
1697591515.9,286047044.7,N
1697591535.8,286047050.6,N
1697591555.6,286047052.1,N
1697591575.5,286047052.6,N
1697591595.3,286047055.7,N
1697591615.1,286047060.2,N
1697591635.9,286047061.0,N
1697591655.7,286047057.4,N
1697591675.5,286047069.8,N
1697591695.4,286047058.9,N
1697591715.2,286047059.4,N
1697591735.1,286047063.8,N
1697591736.0,286047063.8,N
1697591755.8,286047082.4,N
1697591775.6,286047083.5,N
1697591795.5,286047086.3,N
1697591815.3,286047092.3,N
1697591835.1,286047089.8,N
1697591855.9,286047095.0,N
1697591875.7,286047098.7,N
1697591895.6,286047077.0,N
1697591915.4,286047103.2,N
1697591935.2,286047078.2,N
1697591955.1,286047081.1,N
1697591956.0,286047081.1,N
1697591975.8,286047107.6,Y
1697591995.6,286047041.7,P
1697592015.5,286047029.0,N
1697592035.3,286046793.9,P
1697592055.2,286046795.4,N
1697592075.9,286047054.7,N
1697592095.7,286047058.1,N
1697592115.6,286047028.4,N
1697592135.4,286047065.1,N
1697592155.2,286047066.2,N
1697592175.1,286046795.2,N
1697592176.0,286046795.2,N
1697592195.8,286046795.0,N
1697592215.7,286046795.4,N
1697592235.5,286046795.8,N
1697592255.3,286046795.9,N
1697592275.2,286046796.2,N
1697592295.0,286046797.0,N
1697592295.9,286046797.0,N
1697592315.7,286046795.2,N
1697592335.6,286046796.1,N
1697592355.4,286046796.7,N
1697592375.3,286046797.1,N
1697592395.1,286046795.5,N
1697592396.0,286046795.5,N
1697592415.8,286046795.7,N
1697592435.7,286046799.1,N
1697592455.5,286046797.1,N
1697592475.3,286046797.1,N
1697592495.2,286046796.5,N
1697592515.0,286046797.8,N
1697592515.9,286046797.8,N
1697592535.8,286046797.9,N
1697592555.6,286046796.1,N
1697592575.4,286046793.4,N
1697592595.3,286046794.1,N
1697592615.1,286046794.4,N
1697592635.9,286046792.1,N
1697592655.7,286046794.1,Y
1697592675.5,286046979.1,P
1697592695.4,286046982.0,N
1697592715.2,286046979.2,N
1697592735.0,286046980.5,N
1697592735.9,286046980.5,N
1697592755.8,286046983.1,N
1697592775.6,286046981.4,N
1697592795.5,286046979.0,N
1697592815.3,286046981.6,N
1697592835.1,286046981.8,N
1697592855.9,286046981.1,N
1697592875.7,286046979.0,N
1697592895.5,286046980.8,N
1697592915.4,286046981.4,N
1697592935.2,286046981.9,N
1697592955.1,286046979.6,N
1697592956.0,286046979.6,N
1697592975.8,286046979.0,N
1697592995.6,286046981.7,N
1697593015.5,286046983.6,N
1697593035.3,286046980.5,N
1697593055.1,286046981.2,N
1697593075.9,286046979.1,N
1697593095.7,286046981.2,N
1697593115.6,286046981.6,N
1697593135.4,286046980.5,N
1697593155.2,286046982.6,N
1697593175.1,286046982.7,N
1697593176.0,286046982.7,N
1697593195.8,286046983.5,N
1697593215.6,286046982.7,Y
1697593235.5,286047000.4,P
1697593255.3,286047000.0,N
1697593275.2,286046999.2,N
1697593295.9,286046998.3,N
1697593315.7,286047002.8,N
1697593335.6,286046999.9,N
1697593355.4,286046998.5,N
1697593375.2,286047000.4,N
1697593395.1,286047002.3,N
1697593396.0,286047002.3,N
1697593415.8,286046999.7,N
1697593435.7,286047000.9,N
1697593455.5,286046999.7,N
1697593475.3,286047000.5,N
1697593495.2,286047001.0,N
1697593515.0,286047001.2,N
1697593515.9,286047001.2,N
1697593535.8,286047000.0,N
1697593555.6,286047000.6,N
1697593575.4,286046999.9,N
1697593595.3,286046999.9,N
1697593615.1,286046998.4,N
1697593635.8,286047000.0,N
1697593655.7,286047000.2,N
1697593675.5,286046998.3,N
1697593695.3,286046998.2,N
1697593715.2,286047002.7,N
1697593735.0,286047000.4,N
1697593735.9,286047000.4,N
1697593755.8,286046998.1,N
1697593775.6,286047001.2,N
1697593795.4,286047001.0,N
1697593815.3,286047000.8,N
1697593835.1,286047001.2,N
1697593855.9,286046998.2,N
1697593875.7,286046998.5,N
1697593895.5,286047001.0,N
1697593915.4,286047000.8,N
1697593935.2,286047001.1,N
1697593955.0,286047000.6,N
1697593955.9,286047000.6,N
1697593975.8,286047000.5,N
1697593995.6,286046998.7,N
1697594015.5,286046996.9,N
1697594035.3,286047001.1,N
1697594055.1,286046999.7,N
1697594075.9,286046996.6,N
1697594095.7,286046999.1,N
1697594115.5,286047000.7,N
1697594135.4,286046999.6,N
1697594155.2,286046996.7,N
1697594175.1,286046999.4,N
1697594176.0,286046999.4,N
1697594195.8,286047000.5,N
1697594215.6,286047000.2,N
1697594235.5,286047002.1,N
1697594255.3,286047001.9,N
1697594275.1,286047001.3,N
1697594295.9,286047002.0,N
1697594315.7,286047002.0,N
1697594335.6,286047002.2,N
1697594355.4,286047000.7,N
1697594375.2,286047001.2,N
1697594395.1,286047000.2,N
1697594396.0,286047000.2,N
